Theta_e
348 348 349 355 354 360 363 365 364 366 358 329 327 335 336 346 346 346 349 347 351 350 351 353 352 353 356 359 359 359 357 360 358 354 355 356 352 353 355 354 354 352 353 354 353 354 355 356 355 355 355 355 355 354 355 356 356 355 355 354 354 354 355 355 355 354 353 351 350 348 347 347 346 346 346 345 344 344 345 346 345 344 344 345 345 345 345 345 345 344 343 343 343 345 346 347 347
347 350 352 357 359 367 368 370 366 348 335 325 329 336 338 347 346 348 349 347 351 350 350 351 351 353 354 355 354 357 357 356 356 355 353 352 352 354 354 355 354 350 352 353 354 355 355 356 356 356 355 355 356 356 356 355 354 354 352 351 351 352 353 353 354 353 352 352 352 351 351 351 349 348 347 346 346 347 347 347 345 344 345 345 345 346 346 346 345 345 345 345 345 346 347 346 346
347 350 352 356 362 367 366 374 359 329 324 325 329 340 344 345 345 349 348 348 349 347 351 350 351 353 354 357 356 359 359 354 352 352 351 353 354 354 354 355 351 349 350 351 353 354 355 355 355 355 355 356 357 356 354 354 354 353 352 350 350 350 350 350 350 350 351 352 352 353 353 353 352 350 349 349 349 349 348 347 346 345 345 346 346 346 347 347 346 345 345 345 345 346 346 345 345
348 349 352 357 366 367 366 375 359 328 326 325 327 342 344 342 343 346 346 347 347 347 348 348 351 351 355 360 357 358 358 354 354 352 352 354 355 354 354 354 351 351 351 351 352 353 354 355 355 355 355 356 356 355 354 354 353 353 352 350 349 348 347 348 348 348 350 350 350 350 350 350 351 350 349 349 348 347 347 347 346 346 345 346 347 347 348 348 347 346 345 345 345 346 346 345 345
350 352 352 357 368 370 367 366 350 332 329 329 329 339 340 338 339 343 346 348 347 348 347 348 350 350 353 356 355 358 358 355 354 354 354 355 355 354 354 355 354 354 354 352 351 352 353 355 355 355 355 355 355 355 354 354 352 352 351 350 349 347 346 346 346 346 347 347 347 347 348 348 350 350 349 349 348 347 347 348 347 346 346 346 347 347 348 347 346 346 346 346 345 346 346 346 345
348 350 351 358 364 366 364 347 334 330 333 337 335 338 341 337 339 344 346 349 349 349 348 350 351 351 355 354 353 355 356 355 355 355 356 356 355 355 355 355 356 356 355 353 351 352 353 354 355 355 356 354 355 355 354 354 352 351 350 350 349 348 347 345 346 346 346 346 347 347 347 348 349 349 349 349 349 349 348 347 346 346 345 345 346 347 346 345 344 344 345 345 346 347 346 346 345
349 352 354 360 357 361 359 335 328 331 333 340 338 337 338 334 338 340 343 347 349 349 348 350 349 353 355 353 355 355 354 355 355 355 356 356 355 356 356 356 357 357 355 353 351 351 353 354 355 354 354 353 354 355 354 353 352 351 350 350 348 348 347 346 346 346 347 346 346 346 345 346 347 348 348 348 347 347 346 345 343 343 344 345 346 345 344 343 342 343 343 344 346 347 347 347 346
350 357 359 357 357 366 354 331 333 339 337 340 337 336 335 334 336 337 343 345 348 349 350 352 350 357 356 352 357 357 354 355 354 355 355 355 356 356 357 357 357 357 354 353 351 352 353 353 354 354 353 351 354 355 355 354 353 353 351 349 348 347 346 347 347 346 347 346 346 346 346 347 346 346 346 346 346 346 345 344 342 343 344 344 344 344 343 342 344 344 344 344 345 346 347 347 347
351 357 358 352 355 354 340 331 336 340 339 339 336 339 337 336 337 337 342 344 349 350 352 353 351 358 357 354 356 355 353 355 354 354 355 355 356 356 356 357 357 356 352 352 352 353 354 354 354 354 353 351 354 355 355 355 354 353 351 350 349 348 347 347 346 346 346 346 346 346 348 348 346 345 345 344 345 346 345 344 343 344 344 343 343 344 344 343 344 344 343 344 344 347 347 346 347
355 354 358 355 350 337 327 331 337 338 338 338 339 340 338 338 340 341 343 347 350 352 352 351 352 356 355 355 355 353 354 354 355 355 356 356 356 356 356 356 357 355 350 351 352 352 354 356 356 354 352 351 353 354 355 356 355 353 351 351 350 348 347 347 347 347 346 346 346 347 348 347 346 346 345 345 345 347 348 346 344 343 343 342 342 342 342 341 341 340 340 341 342 344 346 347 347
362 350 357 357 345 335 329 331 335 340 340 339 340 339 339 339 339 341 343 347 350 353 351 351 354 354 354 355 354 353 354 354 355 357 356 357 356 356 356 357 357 352 349 350 350 351 353 355 357 354 351 351 351 352 355 355 354 353 352 352 350 348 347 347 348 348 349 349 348 348 349 348 347 347 347 347 347 349 350 348 344 343 341 340 340 339 339 339 339 338 338 339 339 340 341 343 345
363 351 365 357 340 341 340 335 336 342 342 340 338 338 340 337 337 339 341 346 349 352 351 352 352 352 355 356 354 353 354 354 355 356 356 357 356 357 357 358 357 351 349 350 350 351 352 354 355 354 351 351 351 353 355 355 354 353 352 352 350 349 349 349 350 351 352 351 350 349 350 349 349 349 349 348 348 350 351 347 344 343 340 339 339 338 338 338 338 338 338 339 340 341 341 341 342
355 351 369 362 347 346 345 340 341 344 341 342 340 338 339 338 340 340 342 346 348 351 350 350 349 352 356 355 353 352 352 353 354 355 356 356 356 357 357 358 358 355 351 350 350 351 352 353 354 354 353 353 354 355 355 354 354 353 352 351 351 351 351 351 351 352 353 351 350 350 349 348 348 348 348 347 347 347 347 344 342 343 341 339 339 338 337 337 338 339 340 340 341 342 342 342 341
346 347 357 357 350 345 345 342 344 345 340 342 343 340 341 341 342 340 342 344 345 348 349 348 348 352 355 355 354 351 352 352 353 354 355 356 356 355 355 357 357 356 353 350 350 350 352 353 354 355 355 354 355 356 354 353 353 352 352 352 352 351 351 351 351 352 351 349 349 348 347 346 344 344 344 343 342 342 341 339 339 341 342 343 342 340 338 337 339 339 341 341 341 342 343 343 342
341 342 349 351 344 339 343 345 345 344 342 343 343 342 341 340 340 339 341 343 345 346 347 348 347 353 355 355 355 352 352 352 353 353 354 355 355 355 356 356 357 356 353 350 350 350 351 352 353 354 354 353 354 355 354 354 353 353 352 352 351 350 350 350 350 350 349 348 348 347 347 345 342 341 340 339 339 339 338 338 340 341 343 347 346 344 340 338 339 340 341 342 342 343 344 344 344
339 338 345 345 337 332 340 348 344 341 342 343 342 341 341 339 340 341 342 342 345 344 346 346 346 351 353 352 353 351 351 352 352 353 354 354 355 355 355 356 357 357 353 350 351 351 350 350 351 353 353 353 354 354 353 354 353 352 351 350 350 349 349 348 348 348 348 348 347 347 346 344 342 341 340 339 339 340 340 340 343 345 346 348 349 347 344 343 343 343 343 343 343 343 344 344 344
338 338 341 335 332 333 339 347 347 342 342 344 342 342 342 341 341 342 344 342 343 344 343 344 346 349 349 351 352 352 352 352 352 353 354 355 355 355 354 357 357 357 354 353 354 353 351 349 350 352 353 353 353 353 352 352 351 351 350 349 350 349 349 349 349 348 348 348 347 346 345 344 347 347 346 346 346 347 348 346 346 346 346 348 351 350 348 348 347 346 345 345 345 345 345 345 345
338 342 340 330 334 340 341 345 347 346 344 344 343 342 343 343 342 343 344 345 343 343 343 345 348 348 348 351 353 352 352 352 353 353 354 354 354 355 355 356 357 357 357 356 355 354 352 348 350 352 352 353 353 353 352 351 351 350 349 349 349 349 349 349 348 348 347 347 346 345 344 345 350 351 350 351 351 351 352 351 349 348 347 349 351 350 349 349 348 347 347 349 350 350 348 348 349
338 342 338 332 340 343 342 342 343 345 344 345 342 342 346 346 346 346 347 347 345 347 349 349 349 349 349 350 352 352 351 353 354 353 354 354 354 355 355 355 356 357 357 357 356 356 353 350 353 353 353 355 355 353 351 351 350 350 349 348 348 348 348 348 347 346 347 348 347 347 346 347 352 352 351 351 352 352 352 351 351 351 352 352 351 351 351 351 351 350 350 352 352 352 351 351 352
337 337 336 335 340 342 341 342 342 343 343 344 343 344 348 347 347 349 348 348 348 350 350 351 351 351 350 350 351 352 352 352 353 354 354 353 354 355 355 355 355 357 357 357 357 357 355 354 355 354 354 357 357 355 352 350 349 349 348 347 347 347 347 347 347 348 349 350 350 350 349 350 351 351 350 351 353 353 353 352 352 352 352 351 351 352 353 353 353 353 353 353 351 350 351 351 352
336 336 337 336 338 340 341 342 342 343 343 343 342 345 347 346 346 348 348 350 350 350 349 350 351 350 351 350 351 353 353 352 352 352 353 353 354 355 355 356 355 357 358 357 358 357 357 357 357 356 355 356 357 356 354 351 347 349 350 349 348 348 349 350 350 351 351 351 352 351 350 351 351 351 351 352 353 353 353 353 352 352 351 349 349 350 352 352 352 351 351 352 351 349 350 350 352
335 337 337 338 338 339 340 342 342 343 342 343 343 345 346 344 345 346 350 355 352 348 348 349 349 349 350 350 351 352 352 352 351 351 350 351 352 354 355 355 356 356 358 358 358 358 358 357 357 357 356 356 357 356 356 353 348 352 354 352 352 351 352 353 353 353 352 351 352 351 350 351 351 352 352 352 352 352 352 353 351 351 350 349 349 349 350 351 350 350 350 350 349 349 349 349 350
337 338 337 339 338 338 339 339 340 341 341 343 344 345 346 346 347 347 351 356 351 346 347 347 348 348 348 349 350 350 351 350 351 351 350 350 352 354 354 354 356 356 357 358 358 358 358 358 358 358 357 357 357 356 357 355 351 354 355 354 355 354 354 355 355 354 352 352 352 351 351 351 351 352 353 351 350 351 352 351 351 350 349 349 349 349 349 350 350 350 349 349 348 348 349 349 350
336 337 337 338 338 338 337 339 339 341 343 344 345 346 347 349 350 348 350 352 348 346 346 346 347 347 347 349 349 348 349 349 350 351 351 351 352 353 354 354 354 355 357 357 357 357 357 358 358 359 359 357 357 356 357 357 355 355 355 355 356 355 355 355 354 354 353 352 352 353 354 352 352 352 351 350 349 349 350 350 350 350 350 349 349 349 348 348 349 349 349 349 348 348 348 349 349
336 337 337 337 338 338 337 338 338 340 342 343 345 346 348 349 351 351 350 349 347 347 346 346 346 345 346 347 348 351 352 350 349 350 349 350 351 352 352 352 351 352 355 356 356 356 356 357 358 359 359 357 357 357 356 357 356 354 354 355 356 355 356 355 354 353 352 351 352 354 355 354 353 353 351 350 349 348 349 349 350 350 350 350 349 350 349 348 347 347 347 348 349 348 348 348 348
337 337 338 337 337 337 337 340 340 341 342 343 344 347 348 347 349 351 349 348 346 346 345 345 345 345 346 346 349 354 355 350 347 347 348 349 350 350 351 351 350 351 353 355 355 355 356 356 358 359 358 357 358 358 357 356 355 354 354 355 356 357 355 354 354 353 351 350 352 353 354 355 354 353 351 350 350 349 349 350 350 350 350 350 350 350 350 349 348 347 347 346 347 347 347 348 348
336 337 338 338 338 337 337 340 341 342 341 342 344 345 346 346 348 351 348 346 346 345 346 345 345 346 346 346 349 352 351 348 346 345 346 347 347 347 350 350 350 351 351 353 354 354 355 355 357 358 357 357 357 358 357 355 354 354 354 354 355 354 355 355 354 353 351 350 351 352 353 354 355 353 351 349 347 347 348 348 348 349 350 349 349 350 351 350 348 347 347 347 347 346 346 347 348
336 337 338 338 339 338 337 339 340 341 341 341 342 343 345 346 348 349 347 346 346 345 346 345 346 349 348 348 351 354 351 348 345 345 346 345 345 347 349 350 350 350 351 351 353 354 354 355 356 357 357 357 357 357 356 355 354 354 354 354 352 349 353 354 353 352 351 350 351 352 353 354 355 353 350 347 344 344 344 344 345 346 347 347 349 350 351 351 350 348 346 347 347 347 347 347 347
335 337 337 338 340 340 337 337 338 340 341 341 342 342 344 348 348 348 346 346 346 345 346 346 347 350 351 350 353 358 353 347 346 346 346 344 345 347 347 350 349 349 351 350 351 352 352 353 354 356 356 357 358 357 356 355 355 355 354 352 351 351 352 351 350 350 349 349 350 353 354 354 354 353 351 346 344 343 344 345 346 347 347 349 350 351 353 353 352 350 349 348 347 347 347 347 346
336 337 336 337 337 338 339 338 338 340 341 342 343 337 340 348 347 346 346 346 346 346 347 347 347 350 352 352 354 359 353 347 348 347 346 345 345 346 347 350 349 349 350 350 351 351 351 351 353 354 355 356 358 358 357 357 356 355 354 352 351 352 351 350 350 349 349 349 350 353 354 354 354 354 352 348 347 347 347 348 347 347 349 351 353 353 353 353 352 352 352 352 350 348 347 347 346
338 335 335 339 331 331 341 340 338 340 341 341 342 334 337 348 347 346 347 346 345 347 348 348 349 351 352 352 354 358 354 349 349 348 347 347 347 346 346 349 349 349 349 351 350 349 350 352 352 354 355 356 357 357 358 357 356 355 354 353 352 352 351 351 351 350 350 349 350 351 351 353 356 354 351 351 352 352 350 349 349 349 351 352 352 353 354 353 352 351 352 353 352 351 349 347 347
338 330 326 335 330 331 342 340 338 341 340 341 341 334 339 347 347 347 347 347 346 348 349 349 349 351 351 351 353 355 354 350 349 349 348 348 347 346 347 348 349 349 349 351 349 346 351 353 352 354 355 357 357 357 358 356 355 355 354 354 354 353 352 352 351 352 352 349 349 351 351 353 355 353 352 352 352 352 351 351 351 352 352 352 352 353 354 354 353 352 352 354 353 352 351 350 349
336 333 323 328 330 331 338 336 337 341 340 342 341 339 343 346 346 345 346 347 347 349 349 349 350 350 351 351 352 352 353 356 354 350 347 348 349 347 349 350 350 350 349 351 350 348 353 353 352 355 355 357 357 356 358 356 356 355 354 355 355 354 354 354 353 353 354 351 350 352 352 352 353 353 354 354 352 351 352 353 353 353 352 353 352 353 352 352 353 352 353 354 354 353 352 352 351
328 334 328 329 332 331 332 335 337 341 343 343 342 343 345 345 345 344 345 348 348 351 349 349 350 352 352 350 352 353 355 361 361 353 350 350 351 350 352 352 352 353 351 351 352 351 354 354 354 355 355 356 356 356 357 356 356 355 354 354 354 355 356 355 355 355 355 355 354 353 352 352 352 352 352 353 352 352 354 355 353 351 351 353 353 353 352 351 351 351 352 353 353 353 352 352 352
322 325 325 326 331 332 333 336 338 341 342 342 342 344 346 345 345 344 344 348 349 350 350 350 352 353 353 352 355 356 356 363 361 354 352 353 353 353 354 354 355 355 353 353 353 353 355 355 355 356 356 356 356 357 357 357 357 356 355 355 356 356 356 355 355 355 356 356 356 353 352 352 352 351 351 352 353 354 355 353 350 349 351 353 353 353 353 352 352 352 352 352 351 352 351 351 351
329 329 327 325 325 329 338 340 340 342 342 343 343 342 345 346 346 345 344 347 348 348 350 352 353 354 354 355 357 358 358 361 358 354 355 355 355 356 356 356 357 358 357 356 355 355 356 356 356 356 356 356 356 357 357 357 358 358 357 357 357 357 356 356 355 356 356 355 354 352 351 350 350 352 352 351 352 352 351 350 348 348 350 351 352 352 351 350 350 351 351 351 350 349 349 349 349
335 333 329 327 326 327 338 343 340 341 340 341 345 343 345 346 346 345 344 345 346 347 351 353 353 355 356 355 357 359 359 358 356 355 357 357 356 358 357 357 359 359 359 359 357 357 358 357 357 357 357 357 356 357 358 358 359 359 358 358 358 357 356 356 355 355 353 351 349 348 346 345 347 350 349 348 349 349 348 348 348 347 348 349 349 349 349 349 350 350 351 351 350 349 349 350 349
335 333 327 325 326 328 339 343 340 342 340 341 347 345 344 345 344 345 345 345 345 346 350 351 353 356 355 355 356 359 358 357 357 357 357 357 358 358 358 358 359 359 359 359 359 359 359 358 358 358 357 357 357 358 358 358 358 358 357 356 355 355 354 352 351 351 348 345 344 345 348 349 350 350 348 347 347 347 347 348 348 348 348 348 348 348 349 349 350 350 349 349 350 349 349 349 348
331 331 326 321 327 333 338 342 342 341 339 341 346 343 343 345 343 344 346 345 345 346 347 349 351 354 354 354 357 357 356 358 360 359 357 357 358 358 358 358 358 359 360 359 360 361 360 359 359 358 358 359 359 359 359 358 357 357 356 357 355 352 351 347 344 345 344 341 341 344 348 351 350 347 346 344 343 344 345 345 346 345 345 345 346 347 347 348 349 348 348 348 348 348 348 348 347
329 328 322 318 329 333 327 335 344 340 339 342 345 343 344 346 345 345 344 345 345 344 345 347 348 350 350 353 357 356 356 360 360 358 358 356 357 359 357 358 358 359 361 360 361 363 362 361 360 359 360 360 361 360 359 359 358 357 357 354 351 347 345 344 342 342 341 339 340 341 344 345 345 343 342 342 342 342 343 343 342 342 343 345 345 346 347 347 347 347 347 347 347 347 347 347 347
327 329 322 320 329 332 329 336 343 337 337 342 343 336 339 350 349 345 344 343 344 344 345 347 347 347 349 352 355 354 355 357 357 357 357 354 355 358 357 357 358 360 361 361 362 363 362 362 361 360 361 361 361 359 358 358 356 356 352 347 346 346 343 342 342 341 339 338 339 340 342 342 341 342 341 341 341 341 341 342 342 342 342 345 346 346 347 346 346 346 347 347 346 346 347 346 345
321 328 329 327 329 333 335 338 336 328 327 336 339 327 332 352 352 348 349 345 344 345 345 347 349 348 350 353 354 353 352 353 355 355 354 352 354 356 357 357 358 360 362 361 362 363 361 362 362 360 360 360 360 358 357 356 353 352 347 342 344 344 339 340 341 340 338 337 336 338 341 340 339 340 340 339 338 338 340 341 342 341 341 343 344 344 345 345 345 346 346 346 346 345 346 346 345
315 326 332 331 331 331 333 334 328 320 321 334 340 329 330 343 344 351 361 357 353 350 346 346 349 349 348 352 354 352 351 352 353 354 354 352 351 354 356 357 358 360 362 362 363 363 361 362 362 360 358 359 358 357 356 352 348 347 342 338 340 338 337 340 340 338 339 339 338 338 340 339 338 339 338 337 336 337 339 340 340 341 341 342 343 343 343 344 344 345 345 346 346 345 345 345 344
316 329 332 331 331 328 332 333 326 324 326 332 335 335 334 334 337 349 359 359 363 360 350 347 348 348 347 350 352 352 351 352 353 354 355 352 350 353 356 356 358 360 362 363 363 362 362 362 361 359 357 358 357 354 350 346 341 341 340 338 338 337 339 341 340 339 341 341 340 339 339 339 339 339 338 337 338 339 339 339 340 340 341 341 342 342 343 343 344 344 344 344 345 344 345 344 344
324 331 330 331 331 329 334 331 325 327 324 321 324 331 332 330 339 352 356 352 358 364 356 349 348 348 347 348 350 351 352 353 353 353 352 351 351 353 355 356 358 361 363 363 363 362 361 361 360 358 357 356 352 346 342 342 339 338 340 340 338 339 340 340 340 339 339 339 340 340 341 341 340 339 338 338 339 339 339 339 340 340 341 340 341 343 342 342 342 343 343 343 343 343 344 343 342
330 330 329 332 330 330 331 328 327 325 321 320 322 321 323 327 339 351 350 345 348 356 356 351 349 348 347 348 348 350 352 353 353 351 351 348 350 354 355 356 358 360 363 363 364 362 360 361 358 356 355 351 345 338 339 343 342 339 340 340 340 341 341 340 340 338 340 342 342 342 342 341 340 339 339 339 338 339 339 339 339 339 339 339 340 342 343 341 341 342 342 342 342 342 342 341 340
331 330 329 328 329 337 338 338 335 321 319 326 325 318 320 325 337 346 344 345 346 350 352 351 350 347 347 348 347 348 352 353 352 351 350 347 349 354 355 356 358 360 362 362 362 362 361 359 354 352 349 343 340 338 338 342 341 339 341 343 341 342 342 341 340 339 341 342 342 342 342 340 340 339 339 338 338 339 339 339 338 337 338 339 339 340 342 342 342 342 342 341 340 340 340 340 340
330 330 326 322 322 329 331 333 331 317 317 327 324 318 318 319 333 346 346 349 348 348 349 348 348 347 347 348 346 348 352 352 352 350 350 349 352 356 356 355 358 360 360 360 361 361 358 354 349 346 344 340 340 342 342 342 340 340 344 345 342 341 342 340 339 340 341 341 341 342 341 340 340 339 338 339 339 339 338 338 338 338 338 339 339 339 340 342 343 341 339 337 336 337 338 339 339
331 326 320 318 316 317 317 320 321 317 320 325 321 318 318 320 337 349 349 350 348 348 348 346 346 346 347 349 347 349 351 351 351 349 349 351 355 357 356 356 358 359 360 360 360 358 354 349 345 343 342 341 343 345 345 344 342 342 345 344 342 342 340 339 339 340 340 341 342 341 340 340 339 338 338 339 339 339 338 338 339 339 339 339 339 338 339 341 341 340 337 336 336 337 338 339 339
327 321 316 317 318 316 317 317 317 319 321 321 319 321 317 320 336 347 350 349 348 349 347 345 346 345 347 350 347 348 350 350 350 349 349 352 356 356 355 357 358 359 360 360 358 354 350 347 345 344 345 346 346 345 345 345 344 345 346 344 342 341 339 338 339 339 340 340 340 339 339 339 338 338 339 339 338 338 338 339 339 339 339 339 339 339 339 339 340 339 338 338 338 338 339 339 337
326 327 323 320 319 318 319 319 317 320 321 319 319 320 315 318 334 347 350 348 348 347 345 345 346 345 346 347 347 348 349 350 350 349 351 354 355 355 356 358 359 359 361 359 355 351 348 347 346 347 348 349 347 345 345 345 346 347 347 345 343 341 339 339 339 338 337 337 338 339 339 338 337 338 339 338 338 338 338 339 339 339 339 339 339 339 338 339 339 339 339 338 338 338 339 338 336
327 331 325 320 324 323 320 320 319 317 319 319 317 319 323 331 344 348 344 346 347 345 347 348 347 348 348 348 349 349 349 352 351 350 354 356 355 355 357 358 359 360 360 358 353 350 348 347 348 348 348 348 347 345 345 347 347 347 346 345 343 341 340 338 337 336 337 338 338 339 337 336 336 337 338 338 338 338 338 338 338 338 338 338 338 338 338 338 338 338 337 337 337 338 338 337 337
326 326 320 325 334 328 318 317 319 316 317 319 316 317 326 332 339 345 344 346 347 346 348 349 348 350 350 350 351 348 349 353 352 353 356 357 356 356 358 359 359 360 360 357 352 349 348 348 349 349 348 348 347 346 347 348 348 346 346 345 343 341 339 338 337 338 339 339 338 337 336 335 336 337 338 337 337 337 337 337 337 337 337 337 337 337 336 336 336 336 336 336 337 337 337 337 337
325 319 322 331 329 327 326 319 317 317 317 317 314 315 320 321 327 341 345 343 345 346 349 351 350 351 352 353 352 349 351 354 353 355 357 357 356 356 358 359 360 361 360 356 351 349 349 349 349 349 349 348 346 346 347 348 348 347 345 345 343 341 339 338 338 338 338 338 337 337 336 336 337 338 336 336 336 337 336 336 336 336 336 336 337 336 336 336 336 336 336 336 337 338 337 337 337
329 323 328 328 317 317 321 317 318 320 318 317 317 317 319 319 325 336 340 341 345 346 349 351 349 352 357 358 354 352 357 357 353 356 358 358 356 356 358 360 361 361 359 356 351 349 350 350 350 350 350 348 346 346 347 347 348 346 345 345 344 341 339 338 338 338 337 338 337 337 336 336 337 337 336 336 336 335 334 335 336 335 335 336 337 337 337 337 336 336 337 337 337 338 338 338 338
331 328 330 328 321 320 319 318 321 322 320 319 319 318 321 329 337 339 338 342 345 343 348 350 346 352 361 360 355 357 363 360 354 356 359 358 356 357 359 359 361 361 358 355 352 350 351 351 350 351 351 349 347 346 347 347 347 345 345 345 343 342 341 340 339 338 338 337 337 337 337 336 336 335 336 336 334 334 335 335 335 334 334 335 336 337 337 337 337 337 337 337 337 337 337 337 336
325 322 321 321 323 324 323 320 319 321 322 320 319 320 325 340 351 348 345 346 346 347 352 353 347 349 355 356 356 360 363 360 356 357 358 357 356 357 360 360 360 360 358 354 352 352 353 352 352 352 352 350 348 347 347 348 346 345 345 344 343 342 341 341 339 338 338 337 337 337 335 335 335 335 336 335 335 335 334 334 334 333 333 333 334 336 337 337 337 337 337 337 336 336 336 336 335
325 323 321 319 323 320 317 318 316 320 323 320 319 321 326 341 352 351 348 345 347 352 354 353 349 350 352 353 357 363 363 359 356 356 356 356 356 358 362 362 360 359 357 354 353 352 353 354 353 352 352 351 349 349 348 348 346 345 345 344 343 342 341 340 339 338 339 339 339 337 334 334 336 335 335 335 335 335 334 333 333 333 333 333 334 334 336 337 337 337 337 336 336 336 337 336 335
Wind_Speed
7 7 6 5 6 5 5 3 1 1 1 4 5 5 6 8 8 8 10 10 9 10 12 13 16 14 12 9 11 13 11 4 2 3 3 7 17 18 16 17 16 17 19 19 21 22 21 21 20 21 22 22 22 22 22 22 23 23 24 25 25 26 26 25 24 24 24 23 23 22 22 21 20 19 18 18 17 16 15 15 14 14 13 13 12 12 12 12 12 12 12 12 12 11 11 11 10
6 5 5 5 6 4 2 3 1 2 3 6 5 5 6 8 9 10 11 12 11 12 13 14 17 18 17 12 12 16 14 11 9 7 6 18 22 17 19 19 17 20 21 21 22 22 22 21 20 21 21 21 21 21 22 23 23 23 24 24 25 25 25 25 24 23 23 22 22 21 21 20 19 18 18 18 17 16 15 14 14 13 12 12 12 12 12 12 12 11 11 11 11 11 10 10 9
6 6 8 8 7 5 1 3 1 1 5 5 4 5 6 7 8 11 12 13 14 16 16 15 16 14 16 16 13 14 8 9 14 10 8 20 18 16 23 19 19 20 20 21 22 23 23 22 21 21 22 21 21 21 22 22 22 22 23 24 24 24 24 23 23 23 22 21 21 21 20 20 19 18 18 18 17 16 15 14 14 13 12 12 11 11 12 11 11 11 11 10 10 10 9 9 8
5 6 8 7 3 3 1 1 1 3 5 4 4 5 6 7 10 13 13 14 14 15 14 13 13 11 17 19 10 10 8 6 11 11 8 14 18 23 26 20 21 20 19 20 21 24 24 23 22 23 23 22 21 21 22 22 22 22 22 22 22 23 22 22 21 21 20 20 20 20 20 19 18 18 17 17 17 16 15 15 14 13 13 12 12 12 11 11 10 10 10 9 9 8 8 7 6
7 5 7 5 0 0 1 0 0 4 4 3 4 6 6 8 11 12 12 14 14 14 13 10 11 12 15 13 6 6 8 8 9 11 11 16 24 28 26 24 23 20 19 19 22 24 24 23 22 22 23 22 21 21 21 21 21 21 20 21 21 21 20 20 20 19 19 19 19 19 18 18 17 17 16 16 16 15 15 15 14 14 13 13 12 11 10 10 9 9 9 8 8 7 6 6 5
10 7 7 6 2 1 1 1 3 5 5 6 5 6 8 9 12 14 15 16 16 16 15 12 13 14 12 9 7 7 9 11 10 11 17 22 26 28 27 26 24 22 20 20 23 24 25 24 23 22 22 23 22 21 20 20 20 20 20 19 19 19 19 18 18 18 18 18 18 17 17 16 16 16 15 15 15 15 14 14 14 13 13 12 11 11 10 9 8 8 7 7 6 6 5 4 3
8 3 3 3 2 0 0 2 5 4 5 7 6 9 10 10 11 14 15 14 14 14 14 13 14 14 11 8 6 9 15 14 13 15 22 26 27 27 26 25 24 23 22 22 24 25 25 24 23 22 23 23 22 21 20 19 19 18 18 18 18 17 17 16 16 16 16 16 16 16 16 15 15 15 15 14 14 14 14 13 13 13 12 11 10 9 8 7 7 6 6 5 5 4 4 3 2
9 2 2 1 1 1 2 3 5 4 5 6 7 10 10 10 10 12 14 12 12 12 14 14 15 15 12 10 5 11 20 18 20 24 27 28 26 25 24 25 24 22 23 23 24 25 24 22 22 22 23 24 22 21 19 19 18 17 17 17 17 16 16 15 15 15 15 15 15 15 14 14 14 13 13 13 13 13 12 12 12 11 10 9 8 7 7 6 5 5 4 4 3 3 2 1 1
8 2 2 2 1 2 3 4 5 4 5 7 8 11 11 11 10 12 14 13 14 14 17 14 13 16 14 13 10 11 19 24 29 29 28 26 24 23 23 24 23 22 23 24 24 24 23 22 21 21 23 22 21 20 19 18 17 16 16 16 15 15 15 14 15 14 14 14 14 13 13 13 12 12 12 12 12 11 11 10 10 9 8 7 7 6 5 4 3 3 3 2 2 2 1 2 1
2 2 2 2 2 3 4 4 3 4 6 7 7 9 10 11 12 14 15 16 17 16 19 16 15 18 15 14 11 11 21 32 33 27 26 25 24 23 22 22 23 24 24 24 24 23 22 20 19 19 21 21 20 20 19 17 16 16 15 15 15 14 14 13 13 13 13 13 12 12 12 12 12 11 11 10 10 9 9 9 8 7 6 5 4 4 3 2 2 2 2 2 2 1 2 3 2
3 2 3 3 4 3 3 2 3 5 7 7 7 9 11 13 14 15 15 17 18 18 18 14 15 17 16 13 8 14 28 33 29 26 27 26 24 24 23 22 22 24 25 25 24 23 22 19 17 18 20 20 19 19 17 16 16 15 15 15 14 14 13 13 12 12 12 11 11 11 11 11 11 10 10 9 8 8 8 7 6 5 4 3 3 2 2 2 2 2 3 3 4 4 4 4 4
3 1 4 4 2 2 1 1 4 5 6 6 6 8 11 13 13 13 15 16 16 18 15 12 12 13 15 11 7 16 26 27 27 27 27 25 24 24 24 23 22 24 25 25 24 23 22 20 19 19 19 19 18 18 16 16 15 15 15 14 13 13 12 12 11 11 11 10 10 10 10 10 10 9 9 8 7 7 6 5 4 3 2 2 1 2 2 3 3 4 5 5 6 6 6 6 6
3 3 4 1 1 3 1 1 3 4 5 3 5 7 9 12 14 14 14 14 14 15 15 14 13 12 13 10 10 14 17 24 28 27 26 26 26 24 24 23 23 24 25 25 25 24 23 22 21 20 19 18 18 17 16 16 15 15 14 14 13 12 11 11 11 11 10 10 10 9 9 9 9 8 8 7 7 6 5 4 3 1 0 1 2 2 3 4 4 5 6 6 7 7 7 7 8
4 4 4 2 1 2 2 2 3 3 3 4 6 6 6 8 13 14 13 15 13 13 16 17 15 13 13 10 9 10 14 25 29 27 27 28 27 25 24 24 23 24 25 25 25 25 24 22 21 20 19 19 18 17 16 15 15 15 14 13 12 12 11 11 11 10 10 10 9 9 8 8 8 7 6 6 5 5 4 3 3 2 2 3 3 3 4 5 6 6 7 7 8 8 8 8 8
5 4 3 3 1 2 3 3 3 1 2 5 7 6 6 10 14 14 12 13 12 13 16 17 15 10 11 11 9 11 19 28 29 27 27 27 28 26 25 24 22 23 24 24 24 24 23 22 21 20 19 19 18 17 16 15 15 14 14 13 12 12 11 10 10 10 10 9 8 8 7 7 6 6 5 5 5 4 4 3 3 3 4 4 4 4 5 7 8 8 8 8 9 9 9 8 8
5 4 4 3 3 3 3 4 6 4 2 7 7 7 9 11 12 11 11 11 11 14 13 12 12 11 12 11 15 21 26 29 28 29 28 27 27 27 26 23 22 22 22 24 23 22 22 22 21 20 20 19 18 18 17 16 15 14 14 13 12 11 11 10 10 9 9 8 8 7 6 6 5 5 4 4 4 3 3 3 4 4 4 5 5 5 7 8 9 9 9 9 10 10 10 10 9
4 3 3 3 5 4 3 3 4 3 4 8 9 9 10 9 9 9 11 11 11 13 12 10 11 14 15 16 24 28 28 29 29 28 27 26 25 25 24 23 23 21 21 22 21 22 22 21 22 21 20 19 18 18 17 16 15 14 14 12 11 11 10 10 9 9 8 7 7 6 5 5 4 4 3 3 3 3 3 4 5 6 6 6 6 6 7 8 9 9 10 10 10 10 10 10 10
3 3 3 3 5 5 6 6 6 6 6 8 9 11 10 9 9 7 8 10 11 14 13 13 14 16 19 26 31 29 28 30 29 27 24 22 21 20 20 22 22 21 21 21 20 21 21 23 22 21 20 19 17 17 16 16 16 15 14 13 12 11 10 9 8 8 7 7 6 5 5 4 4 4 4 3 4 4 5 5 6 6 6 6 7 8 9 9 9 9 9 10 9 9 9 10 8
3 2 2 4 7 7 6 9 7 6 8 8 9 12 10 9 8 4 6 11 14 16 15 16 19 18 20 26 30 28 27 28 27 25 22 20 19 18 18 20 21 21 21 22 22 20 20 22 21 21 21 18 17 16 16 16 16 15 13 12 11 10 9 8 8 8 7 7 6 6 6 6 6 6 5 5 6 6 7 8 7 6 6 8 9 10 10 10 9 8 9 8 8 8 9 9 7
3 2 2 4 10 8 4 9 8 7 9 9 9 12 12 9 5 2 9 16 14 14 14 16 18 18 17 18 23 26 25 25 24 23 20 19 20 19 18 19 20 21 21 22 23 21 20 21 20 20 20 19 17 16 16 15 15 14 13 12 11 10 9 9 9 8 8 7 7 7 6 7 8 7 7 7 6 7 9 9 8 8 8 8 9 10 10 10 9 9 9 8 7 6 7 8 7
2 4 3 3 9 10 8 9 8 8 10 10 10 12 13 10 7 5 10 13 11 11 13 16 18 19 18 16 18 21 22 22 22 21 19 18 19 19 19 20 21 22 21 21 22 22 21 21 20 19 20 21 19 17 16 15 15 14 13 13 11 10 10 10 9 9 9 9 9 8 7 8 9 8 8 8 7 8 9 8 9 9 8 6 6 8 8 8 8 8 8 8 7 7 7 7 7
1 4 6 6 6 7 11 10 7 8 9 9 11 12 10 9 7 7 9 8 8 11 13 17 18 17 18 17 18 19 18 18 19 20 20 18 19 20 20 21 22 23 22 21 21 22 21 21 20 20 20 20 18 17 15 15 16 14 12 12 11 10 10 10 10 10 10 9 10 9 9 9 9 9 9 9 9 9 9 9 9 9 7 5 5 6 6 7 7 6 7 6 8 9 9 8 8
4 5 6 7 6 7 9 9 7 6 9 10 12 12 10 9 6 6 8 5 9 16 16 17 16 17 19 18 18 16 15 15 16 20 20 20 20 21 21 20 22 23 23 22 21 20 20 20 19 20 20 19 17 15 15 16 17 14 11 11 12 11 11 12 12 12 10 10 10 10 10 9 8 9 10 9 8 9 9 10 10 8 6 5 6 6 5 6 7 8 7 6 8 9 10 10 10
6 5 5 7 8 7 5 7 8 8 10 11 10 11 11 10 6 6 8 7 14 19 17 17 16 18 18 16 15 14 14 14 17 21 21 20 20 22 23 21 22 23 23 23 22 20 20 19 19 20 20 19 17 15 15 18 17 14 11 12 13 12 12 12 11 11 10 10 11 11 11 10 9 9 10 8 8 9 10 10 9 7 5 5 6 6 6 7 9 9 9 8 8 9 10 10 10
5 5 6 7 7 8 6 7 9 10 10 11 12 11 10 10 7 7 8 11 17 18 16 17 15 15 14 13 13 12 12 13 18 20 20 21 22 22 24 24 22 21 23 24 23 21 20 20 19 19 20 20 18 16 17 19 17 13 11 12 13 13 12 11 10 10 10 10 11 12 12 11 10 10 9 8 7 7 8 8 7 6 6 6 7 7 7 8 10 9 10 10 10 10 11 10 9
6 9 8 7 7 8 7 7 10 11 10 11 13 11 9 9 8 7 9 14 17 16 16 15 14 13 12 11 11 10 9 11 16 17 17 21 22 22 24 25 23 21 23 23 22 21 20 21 19 19 19 19 18 16 16 17 16 13 13 13 14 16 13 10 11 11 11 11 12 12 12 10 10 10 9 7 7 7 6 7 7 7 7 8 8 9 9 10 11 11 11 12 12 12 12 11 10
8 10 8 7 8 7 7 9 12 13 12 13 12 10 9 7 6 7 10 14 15 15 15 13 12 12 11 11 10 10 9 10 16 16 16 18 19 22 23 24 23 22 23 23 23 22 20 19 18 18 18 18 18 16 15 13 11 11 12 13 12 13 12 12 13 12 11 11 11 11 10 10 9 9 9 9 10 9 8 8 8 9 10 10 11 11 12 12 13 13 13 13 13 14 13 12 12
8 11 9 7 7 8 9 11 11 10 11 13 12 11 10 7 5 7 11 12 13 15 14 13 11 9 10 11 9 8 8 12 17 16 16 14 14 20 22 24 24 22 23 23 23 23 22 19 18 19 17 17 17 15 16 13 10 9 10 12 10 9 9 12 13 13 11 9 9 10 10 10 10 10 10 10 11 10 10 10 10 11 12 12 13 14 15 16 16 16 16 15 14 15 15 14 13
9 10 9 6 6 8 9 9 10 9 9 14 13 10 9 7 7 9 11 12 13 14 13 13 11 8 10 10 8 6 7 13 15 15 18 18 15 18 21 24 25 23 21 21 22 22 20 20 21 20 18 17 16 15 15 14 13 12 12 14 14 11 7 7 7 7 9 9 9 10 10 11 11 11 11 11 11 10 10 11 11 12 12 13 14 15 16 16 16 16 15 16 16 17 17 17 15
9 8 7 6 5 5 7 8 11 9 11 17 12 5 6 8 9 10 10 12 14 12 11 11 9 8 9 9 7 5 7 10 11 14 20 20 16 16 18 22 24 23 21 20 22 21 18 20 21 21 19 17 17 15 14 14 13 13 13 13 16 16 10 8 7 7 7 9 9 10 10 11 12 10 10 11 10 10 10 11 12 13 13 13 14 15 17 17 16 16 16 17 18 18 19 19 18
7 7 6 5 4 4 7 7 9 8 9 16 11 4 6 9 9 9 8 11 13 10 10 10 9 9 9 8 6 5 6 8 10 14 20 20 17 16 15 18 23 22 22 21 20 18 16 19 21 21 20 17 17 15 13 13 12 12 11 10 13 15 12 9 9 9 10 11 10 10 9 11 14 12 11 11 11 11 11 11 12 13 14 16 16 16 17 18 18 18 18 18 18 18 19 20 19
4 6 4 4 4 4 8 7 8 7 7 11 7 4 6 9 10 10 7 10 11 9 10 10 10 11 10 8 6 5 6 8 11 15 20 18 16 18 15 16 20 21 23 22 18 14 13 17 18 20 20 17 16 14 13 13 11 11 10 10 10 10 10 9 8 6 8 12 11 9 8 12 17 15 13 13 11 13 14 12 12 14 16 17 18 17 17 18 19 20 20 18 19 18 18 19 18
3 5 4 4 3 2 6 7 7 8 7 5 5 5 7 8 11 11 8 10 11 9 9 10 11 11 10 8 7 7 6 6 8 12 19 17 16 19 16 17 19 19 22 21 18 13 11 14 14 17 20 15 14 14 13 13 12 12 11 11 10 8 8 8 6 3 3 6 7 6 6 12 17 13 12 12 11 13 14 13 13 14 16 17 17 17 17 19 19 21 20 19 19 18 18 18 17
3 4 4 5 5 2 3 5 6 9 7 5 4 6 9 10 12 12 10 10 9 8 9 9 10 9 10 9 7 7 7 6 5 9 17 18 17 19 17 18 18 17 19 18 17 14 11 13 12 13 15 13 13 13 12 12 12 12 11 10 9 7 7 7 7 6 5 4 3 4 5 9 10 7 10 12 11 11 12 12 13 12 13 14 15 16 17 17 18 18 19 20 19 19 20 19 18
7 6 4 6 8 5 4 4 5 9 9 7 4 6 12 13 13 12 11 12 10 8 8 7 9 9 9 9 6 8 8 6 6 10 17 20 19 17 15 15 15 15 16 14 15 15 11 13 13 12 12 12 12 12 11 11 10 9 8 7 7 7 7 8 7 8 8 7 7 6 6 7 7 6 8 9 8 8 9 10 11 11 12 13 14 16 16 16 16 17 17 18 19 19 21 21 20
13 11 7 8 9 8 9 8 8 10 7 6 7 8 13 14 13 13 13 13 12 9 8 6 8 9 8 8 6 8 8 6 9 13 18 19 17 17 15 15 15 14 14 14 15 15 12 13 14 12 12 12 12 11 11 11 10 9 8 7 8 8 8 8 8 8 8 7 6 6 5 5 6 4 2 4 5 6 7 8 8 9 10 11 13 15 15 16 17 18 18 18 18 19 20 20 18
17 13 9 11 11 9 13 13 9 10 6 5 8 7 12 15 12 13 13 13 13 12 11 8 8 8 8 8 7 8 8 7 11 15 18 19 18 17 18 17 16 16 16 16 16 16 14 13 14 14 12 12 13 13 11 11 12 11 10 10 9 8 7 7 6 6 5 3 3 4 4 4 4 2 2 5 4 4 6 6 7 8 8 10 12 13 14 15 15 17 18 18 17 16 17 17 14
12 12 10 10 10 9 14 14 9 11 7 5 8 6 10 14 12 12 12 12 13 13 13 11 10 10 8 8 9 9 8 8 10 13 16 18 18 18 20 20 19 18 19 18 17 17 15 14 15 15 13 11 12 14 13 13 13 11 9 8 7 5 3 2 2 1 1 3 4 5 5 4 2 1 4 5 5 5 6 5 6 7 8 9 11 12 14 14 13 13 15 16 16 14 16 16 13
8 7 8 8 8 8 11 12 11 10 6 7 10 7 8 13 12 12 12 10 10 13 14 13 13 11 9 9 10 10 8 9 9 10 14 17 18 19 21 22 21 20 21 20 18 18 18 17 16 17 15 13 13 14 13 13 11 8 6 5 4 3 1 1 1 2 1 3 2 4 4 3 3 4 4 5 6 6 5 5 6 8 9 10 11 12 13 13 13 12 12 14 15 14 14 13 12
8 5 4 5 9 11 8 9 13 11 7 9 12 7 7 10 10 10 12 10 8 13 16 15 15 13 12 11 11 11 10 10 11 10 13 16 18 20 20 22 22 20 21 22 20 20 19 18 17 17 17 15 14 13 12 10 9 6 5 5 4 3 3 3 3 2 2 4 8 9 8 6 5 4 4 4 4 4 5 6 8 10 11 11 11 11 12 12 12 12 12 11 12 11 11 10 10
7 7 5 5 10 15 13 12 12 10 8 11 11 6 4 7 8 8 10 10 9 13 15 14 15 14 13 13 12 13 12 12 13 12 12 14 17 20 21 23 23 21 22 22 22 22 21 19 18 17 16 15 13 12 11 9 9 9 7 5 5 5 4 4 3 1 2 2 5 8 6 4 3 3 3 3 3 5 6 7 9 11 11 11 10 10 11 12 11 10 10 10 10 10 10 10 11
6 8 8 6 7 11 16 17 12 7 6 11 11 6 4 5 7 9 8 9 10 11 14 14 14 14 13 13 13 13 12 13 13 13 13 14 17 20 21 23 24 23 23 23 23 22 21 19 18 16 15 14 12 11 12 11 11 10 8 6 6 6 4 3 3 1 2 3 4 4 4 3 3 2 3 4 5 6 7 7 10 12 12 11 10 10 11 11 10 9 8 9 8 8 9 11 13
5 6 8 7 6 2 15 20 12 6 5 9 13 8 3 4 6 10 8 8 10 9 13 15 13 14 13 12 14 14 12 13 13 13 14 15 17 20 21 23 25 24 24 25 24 22 20 20 18 16 16 15 14 14 14 13 13 11 9 7 6 5 4 4 3 1 2 2 2 2 2 3 3 4 5 6 7 7 6 8 10 11 11 10 11 11 10 10 10 9 9 9 8 8 9 11 14
5 5 7 6 9 7 14 19 9 6 4 6 12 9 5 4 8 10 9 7 6 6 11 14 14 15 14 13 15 16 14 14 14 13 14 15 18 21 23 24 25 26 26 26 25 23 22 22 19 19 18 17 17 17 16 14 13 12 9 8 6 5 5 4 2 2 3 3 2 1 1 1 1 3 4 5 6 5 6 8 9 9 8 9 10 11 10 9 9 9 9 9 9 10 11 11 12
5 7 7 6 10 10 9 13 6 6 6 5 9 9 6 5 6 8 9 8 7 8 10 13 15 16 15 14 16 16 16 16 15 15 15 16 20 24 27 26 25 28 29 27 26 25 24 24 22 21 21 20 18 17 16 14 12 12 10 9 8 7 5 4 3 2 3 2 1 1 1 1 2 3 3 4 5 4 5 5 5 5 7 8 9 9 9 9 9 8 9 10 10 10 10 10 10
5 9 8 5 10 9 3 8 5 4 5 5 9 10 5 3 5 7 7 8 10 11 9 9 13 16 15 15 16 16 15 15 15 15 14 18 24 27 29 27 25 29 30 28 28 27 27 26 25 24 23 21 19 18 17 16 13 13 11 10 9 8 6 5 4 3 3 3 3 3 2 2 2 2 2 4 4 3 3 3 4 6 8 8 8 7 7 8 8 7 8 9 9 9 9 9 10
5 7 8 7 6 4 1 4 4 4 1 5 8 11 9 4 5 8 9 13 16 13 9 9 11 15 16 14 14 15 14 13 14 14 14 19 25 28 30 28 26 29 30 29 29 29 29 28 27 26 24 22 20 18 18 17 15 13 12 10 9 8 7 6 5 4 4 4 3 3 3 2 2 1 2 3 2 2 3 4 6 7 7 8 8 7 6 7 7 7 7 8 8 9 9 9 10
6 6 4 4 3 1 3 3 4 3 3 6 6 5 9 5 5 9 14 18 19 15 14 14 14 15 15 13 12 13 13 14 14 14 13 15 19 24 28 27 26 30 30 30 31 30 30 30 29 27 25 23 22 20 18 17 15 13 12 11 9 8 8 6 5 4 4 4 4 4 2 2 1 1 2 2 1 1 4 5 6 6 6 7 8 7 6 5 6 7 7 7 8 8 8 9 9
7 5 2 2 1 1 1 4 1 2 4 6 5 6 5 5 7 15 19 17 17 18 17 18 17 15 14 13 12 12 12 14 14 13 13 13 13 18 24 24 26 30 30 30 31 31 31 31 30 29 27 25 24 22 20 18 16 14 13 12 10 9 7 6 5 5 4 5 5 4 3 2 2 2 2 3 3 4 6 5 5 6 7 7 7 8 8 6 5 7 8 8 9 8 8 9 9
6 5 3 4 3 2 2 1 2 3 5 5 5 6 5 5 5 13 21 19 17 18 17 16 17 16 15 15 13 11 13 15 14 12 13 12 13 18 23 24 26 28 30 31 31 32 32 31 31 31 29 27 26 24 22 19 17 15 13 12 11 9 7 6 5 5 5 5 4 4 3 3 3 3 3 4 7 7 5 5 6 7 7 7 7 8 9 7 5 7 8 8 9 8 7 9 9
6 6 6 4 4 4 3 3 4 3 4 4 6 5 4 5 5 6 17 19 14 14 14 15 17 17 15 14 12 12 13 14 13 13 13 13 16 21 24 25 27 28 29 30 31 32 32 32 32 31 30 29 27 25 23 20 18 16 14 13 11 9 8 7 6 6 6 5 5 4 4 3 4 4 4 5 6 5 4 5 7 8 8 7 7 7 8 8 7 8 9 8 8 7 7 8 9
6 5 6 5 3 5 4 4 5 4 3 3 3 4 3 6 5 2 11 15 13 14 13 12 13 12 12 12 11 12 11 12 13 12 13 14 18 23 25 25 27 29 29 30 32 33 33 33 33 32 31 30 28 25 23 21 18 16 15 14 11 10 10 9 7 6 5 4 5 5 5 4 4 4 5 4 4 4 4 6 8 8 8 8 8 8 8 8 8 8 9 9 8 7 7 8 9
3 3 5 5 3 4 4 4 5 4 3 3 3 4 1 0 4 3 15 16 13 12 10 12 14 12 12 11 12 12 11 12 13 13 13 15 18 23 26 27 29 30 30 30 33 35 35 34 33 31 30 29 28 25 22 21 19 17 16 14 12 12 11 9 6 5 5 5 6 6 6 5 4 4 4 4 4 4 4 6 7 7 8 8 8 9 8 7 8 9 9 9 9 8 8 8 8
4 4 6 5 4 3 3 1 2 3 3 4 4 6 3 3 3 2 14 17 12 9 10 12 15 15 14 11 11 13 11 12 14 13 14 15 17 22 26 28 30 32 32 32 33 34 34 34 34 32 31 30 28 26 23 21 19 18 17 16 14 13 11 8 7 6 6 7 7 7 7 6 5 5 5 4 4 3 4 6 6 7 8 8 8 8 8 7 8 8 9 10 9 8 9 9 9
5 6 8 7 4 5 3 2 2 3 3 2 3 6 4 4 4 5 11 14 12 10 11 12 13 13 11 10 11 12 10 11 12 11 12 13 15 21 25 27 30 32 32 32 32 31 31 32 33 32 31 31 28 26 23 21 20 19 18 16 15 14 12 10 9 8 8 9 8 8 7 7 8 8 7 6 5 5 6 6 6 7 8 8 8 8 8 8 8 9 10 10 9 8 9 10 10
4 4 6 7 5 5 5 4 3 4 3 1 3 4 3 4 4 9 11 10 11 11 10 12 13 12 10 9 10 10 9 10 11 10 11 12 15 21 27 29 30 32 32 31 30 30 29 29 30 29 29 29 27 25 24 22 20 19 17 16 15 14 13 12 10 10 10 10 9 8 8 10 11 9 9 9 8 7 6 6 7 8 7 7 8 8 8 8 9 9 10 9 8 9 10 10 10
4 3 5 5 4 4 4 5 4 4 4 3 1 3 3 6 2 7 10 9 10 10 9 8 10 11 11 10 10 9 8 10 12 11 12 13 15 21 27 28 29 29 29 29 30 29 28 28 28 28 27 28 27 26 25 23 22 19 18 16 16 15 14 12 11 10 10 10 9 10 11 11 11 11 11 12 10 8 7 8 9 9 8 7 7 8 8 9 9 9 8 8 9 10 11 10 10
5 4 5 5 4 4 3 3 4 3 4 4 4 1 4 6 2 6 8 8 8 9 9 7 7 9 9 9 10 10 8 9 12 12 13 13 14 19 24 26 27 28 28 29 29 29 28 28 28 28 28 28 28 26 26 24 23 21 19 17 17 17 15 13 12 11 10 10 11 11 12 12 13 13 13 14 14 12 11 10 10 11 10 8 6 6 7 9 9 9 8 8 9 10 11 11 12
Wind_Direction
252 254 253 260 252 240 224 198 344 294 99 52 59 70 66 61 65 73 83 90 73 72 74 71 74 75 81 90 103 70 31 39 94 124 107 135 153 150 143 144 144 140 136 130 127 126 123 122 122 122 121 120 118 119 119 117 115 113 112 111 110 111 113 115 118 121 122 124 127 129 127 127 127 128 127 126 124 122 120 118 117 114 111 107 105 102 100 100 101 102 102 98 94 91 88 85 81
257 259 258 242 220 227 239 121 73 292 65 58 49 57 71 70 70 69 71 83 88 93 88 84 82 81 89 87 84 72 37 19 67 80 84 131 143 150 147 146 149 145 139 134 131 130 127 125 125 123 124 123 121 120 119 118 116 115 114 115 115 116 118 119 119 120 120 122 125 126 126 127 129 131 131 131 130 129 127 126 123 120 116 112 109 106 104 103 103 104 101 99 96 93 90 87 85
266 263 249 216 200 222 260 65 93 35 68 74 66 69 81 82 86 82 80 87 98 102 94 88 85 85 86 70 54 73 65 27 71 80 96 133 143 153 150 145 147 143 138 137 135 136 134 131 129 128 128 126 125 123 122 120 118 117 117 118 119 120 121 120 120 120 121 123 125 126 127 128 130 131 131 132 132 132 133 130 127 124 120 117 114 111 108 106 104 102 99 98 96 94 91 89 88
265 255 246 212 177 230 168 78 201 83 80 99 88 87 87 87 89 83 83 85 91 93 92 93 90 85 83 86 81 80 94 65 84 99 120 148 150 150 149 143 142 139 139 140 138 139 138 135 134 133 131 128 128 126 124 123 121 120 120 120 122 123 122 122 121 122 124 125 126 127 127 129 130 130 131 133 133 135 135 131 128 126 123 120 116 112 109 105 102 99 97 95 94 95 95 92 91
253 244 250 238 78 274 127 323 318 79 84 93 92 97 95 99 97 95 89 83 85 84 84 89 90 89 83 94 109 90 107 108 109 115 129 149 146 146 146 143 141 139 143 144 142 141 139 138 137 135 132 130 129 129 127 125 124 124 123 122 123 124 124 124 125 126 126 126 126 126 126 127 128 129 130 131 133 134 133 131 128 124 121 118 114 111 106 101 97 94 93 93 92 93 93 92 91
244 235 239 241 269 354 36 5 65 75 83 84 93 94 87 88 90 94 89 80 83 86 88 87 91 94 83 82 89 120 138 125 126 130 134 141 144 145 143 142 140 139 146 148 146 143 142 141 139 137 134 133 131 130 129 127 126 126 126 125 124 123 125 126 127 128 127 127 126 126 126 125 126 127 128 129 130 130 129 128 125 121 118 114 111 109 105 99 94 93 92 91 90 91 89 85 82
250 223 185 227 288 332 87 69 81 83 95 98 109 105 98 99 100 100 95 93 92 90 88 89 100 94 83 92 84 115 126 125 132 136 139 141 142 143 142 141 137 139 145 148 149 145 144 143 140 138 136 136 133 131 129 128 128 128 128 127 125 125 126 128 128 127 127 127 127 127 127 125 126 126 125 126 126 125 124 123 121 118 114 111 108 104 100 94 91 92 90 89 90 91 90 81 67
257 251 133 109 344 21 75 63 72 71 83 94 103 105 107 109 113 110 105 105 102 96 88 90 99 90 84 97 94 114 117 126 136 135 138 140 142 143 142 140 134 139 146 146 148 145 145 145 143 141 139 138 135 133 131 130 129 129 129 128 127 128 129 130 130 128 127 127 127 128 127 124 123 122 120 118 118 118 118 118 118 115 111 107 103 97 92 88 87 86 81 82 79 81 81 70 53
233 223 357 30 13 26 66 66 73 88 84 85 92 99 105 104 101 100 101 100 102 98 92 96 96 94 99 100 103 113 114 130 136 135 139 141 143 142 141 140 134 141 148 147 146 145 146 146 145 143 141 140 136 134 132 131 130 130 130 130 130 131 132 131 130 129 127 127 127 126 124 122 120 119 116 114 113 114 115 116 116 113 109 103 97 92 90 88 84 80 73 58 50 68 19 340 326
201 79 45 30 30 41 57 71 83 98 96 94 96 102 104 98 90 87 90 93 94 93 95 98 94 101 110 103 104 114 125 136 137 138 142 143 144 142 141 141 141 147 148 147 147 146 145 144 145 144 142 140 136 134 132 131 131 132 132 134 135 135 134 131 130 128 126 126 125 124 122 120 119 118 116 114 113 115 117 117 117 111 103 94 86 83 78 70 69 54 42 11 356 339 303 309 290
37 1 74 50 29 37 22 74 94 87 93 95 89 85 86 86 87 89 94 98 101 105 109 105 99 107 109 98 97 119 132 139 138 142 145 144 144 143 143 141 147 150 146 147 147 144 142 143 143 142 140 138 137 135 133 132 134 136 136 138 138 137 134 132 130 128 126 125 124 123 121 120 118 118 117 115 116 118 120 118 115 105 91 78 67 55 22 20 26 359 355 338 329 318 306 301 286
73 329 66 50 48 126 291 53 89 96 95 94 100 98 102 103 102 108 110 114 118 114 112 108 112 116 108 103 108 124 134 140 140 143 144 143 142 141 142 140 145 148 147 147 147 145 143 141 140 140 140 138 139 137 135 136 138 140 141 141 140 137 135 133 133 130 128 126 126 124 122 121 119 119 119 118 119 120 121 119 113 101 78 44 15 352 324 336 349 336 335 330 325 318 313 309 298
129 162 91 89 206 148 172 66 62 84 88 82 107 110 116 119 118 121 115 110 109 107 112 118 125 121 110 113 126 129 134 138 141 143 141 141 139 138 140 139 140 145 149 149 147 146 143 141 141 143 144 142 142 140 140 141 143 144 144 143 141 139 138 138 137 134 133 131 130 127 125 123 123 124 124 125 124 126 128 129 131 146 248 294 295 300 300 318 333 327 327 324 320 316 314 312 304
164 154 126 132 215 172 147 87 34 40 92 105 92 89 98 105 108 107 104 105 105 117 126 126 124 112 112 124 130 134 135 137 139 141 142 141 140 139 138 139 139 143 148 149 147 146 145 144 145 145 147 146 144 143 144 146 147 147 146 146 144 143 143 143 141 138 136 136 135 132 130 129 128 130 132 135 137 140 145 151 170 207 251 267 278 288 296 311 321 321 322 319 317 314 313 311 306
177 150 135 109 170 193 146 116 111 106 139 113 93 97 99 95 101 101 108 113 112 122 122 125 130 117 130 144 134 137 139 138 135 135 139 139 138 136 137 139 139 141 146 148 146 146 148 149 148 148 148 148 147 148 149 150 151 151 150 150 149 148 148 146 144 141 141 141 140 136 134 133 133 138 144 150 156 164 169 183 202 220 242 251 265 280 293 305 313 317 320 318 317 315 312 312 308
193 156 111 112 193 192 166 139 132 160 145 115 109 103 95 91 100 106 117 117 120 130 126 136 146 132 142 141 126 132 135 135 133 131 130 130 131 133 135 137 138 143 145 146 147 149 152 152 152 151 150 151 151 153 154 155 155 156 155 155 155 153 152 151 148 146 147 148 147 145 144 143 142 151 160 168 182 199 209 210 219 229 239 250 260 270 286 298 305 311 313 314 314 314 313 311 308
215 170 128 167 178 171 180 129 126 172 135 124 118 101 96 94 97 106 124 129 131 133 130 137 138 129 132 124 121 129 131 129 130 128 126 125 128 131 135 136 139 144 146 148 150 153 156 155 154 153 153 154 155 158 160 160 160 162 162 161 161 160 159 157 156 155 156 158 159 157 156 155 154 170 180 196 215 231 240 228 229 241 245 250 256 261 275 285 292 303 307 309 309 309 310 308 308
213 193 179 168 144 166 185 149 156 172 139 129 122 117 116 113 116 128 138 130 115 107 106 112 111 111 116 121 127 134 134 129 128 129 128 129 132 135 139 140 143 148 152 154 155 158 159 157 155 155 156 156 159 162 164 166 166 168 167 166 167 167 167 165 165 164 166 170 173 172 172 179 184 201 220 229 241 250 254 250 247 256 255 258 266 271 278 280 283 294 301 306 306 303 304 307 313
197 207 154 126 135 179 189 143 151 152 128 127 123 118 109 108 118 133 117 102 96 97 99 102 104 110 117 125 134 139 136 130 132 137 139 140 142 144 145 146 148 152 155 156 158 164 163 158 158 158 158 160 164 166 169 173 173 172 170 170 172 173 174 174 172 172 180 181 187 193 188 197 206 216 230 235 247 252 252 256 264 266 261 268 277 283 287 285 285 291 296 302 305 303 301 306 317
209 152 84 98 122 145 148 117 130 136 127 126 120 112 107 110 108 94 107 102 100 106 113 115 118 126 127 129 134 135 133 133 140 146 147 147 147 149 152 152 149 152 157 157 159 165 165 162 163 164 163 164 170 174 173 175 176 175 174 174 176 178 180 181 181 184 191 190 197 210 204 208 221 224 227 237 246 248 248 255 264 263 263 272 278 280 283 282 283 286 290 293 300 306 295 299 308
203 118 113 75 97 125 125 110 123 131 133 133 124 117 119 126 122 115 119 115 115 124 130 130 132 135 133 135 137 137 137 142 150 149 147 150 149 150 153 153 152 155 158 157 158 162 167 169 169 170 168 167 174 178 175 177 177 177 180 182 181 183 187 188 191 196 201 204 206 215 217 221 230 228 228 237 239 240 242 247 257 260 263 271 273 274 278 283 283 280 284 288 298 305 293 289 291
104 111 124 101 80 111 116 116 131 130 130 123 108 103 107 118 125 123 121 126 133 133 133 132 134 136 138 142 143 143 146 153 156 149 151 158 155 150 153 156 154 154 156 158 160 162 168 173 172 171 172 172 176 179 177 176 177 181 184 185 187 189 194 198 203 208 211 214 213 215 218 223 224 225 231 232 229 235 242 244 251 259 269 274 270 274 283 287 283 278 286 296 305 306 296 287 275
92 81 86 92 85 90 111 133 139 121 112 103 101 104 103 101 104 114 116 121 127 126 129 131 132 137 143 146 147 150 153 161 156 149 156 163 157 151 154 157 154 154 156 159 163 164 166 171 173 171 171 172 175 178 177 176 179 184 187 189 193 196 199 205 212 216 219 220 220 221 219 222 222 227 236 237 237 243 250 252 252 260 278 286 279 284 289 279 279 283 289 292 296 297 287 285 281
99 101 102 95 96 99 113 123 108 93 97 100 107 112 112 109 100 100 99 96 114 120 125 129 134 142 147 148 150 151 155 162 152 152 162 162 154 150 151 152 154 158 156 157 163 164 165 170 172 171 171 171 176 181 177 177 181 181 186 192 192 197 200 204 216 219 220 221 219 220 218 219 222 231 241 249 258 257 257 257 253 258 272 285 289 295 288 274 279 285 286 278 276 280 275 280 287
105 115 113 97 95 95 82 86 94 93 92 90 90 90 96 112 121 105 96 103 113 119 126 131 137 145 149 152 151 147 158 160 148 157 165 158 152 150 151 155 159 160 154 156 162 165 169 172 172 174 175 173 175 178 178 179 179 177 182 189 189 196 203 206 210 214 221 220 213 214 214 217 223 235 245 251 264 266 265 264 260 268 275 285 291 292 286 280 283 279 274 269 265 272 274 280 287
111 103 102 109 110 103 100 101 100 95 90 88 89 90 91 107 122 109 106 114 117 122 128 134 141 148 154 152 144 144 162 155 149 160 157 151 154 151 151 157 163 162 157 159 162 167 173 174 174 178 179 175 173 174 182 184 179 178 174 178 190 196 206 214 215 222 225 213 210 212 211 216 224 235 245 253 266 274 276 274 273 280 282 288 291 286 286 285 285 279 272 267 262 266 269 274 278
114 114 118 122 119 118 118 104 99 100 102 105 105 111 109 105 112 105 111 117 124 128 130 139 144 151 155 142 140 155 168 155 154 155 147 155 159 152 151 154 160 161 160 163 166 169 172 174 176 180 180 175 177 178 186 191 183 181 167 169 197 206 207 215 225 237 229 213 215 215 211 217 225 239 256 267 275 278 274 274 279 286 287 290 293 290 288 285 283 281 278 273 267 265 264 267 271
123 126 118 113 116 106 103 102 110 114 115 122 126 129 122 110 111 119 127 127 131 133 137 146 147 153 144 132 145 166 170 158 157 150 147 169 167 152 153 155 157 158 160 163 165 168 170 175 177 180 183 176 180 182 182 188 184 179 162 166 199 219 218 218 224 229 219 215 219 214 210 214 223 243 263 271 272 274 275 280 284 287 292 292 293 294 292 289 285 283 280 277 273 270 268 268 270
134 132 119 139 132 107 121 129 134 131 130 138 136 131 125 121 128 132 137 138 137 140 147 149 147 148 130 131 156 174 173 159 157 150 151 171 174 158 157 157 158 158 161 162 162 167 172 178 178 180 186 178 179 182 180 183 180 178 170 173 189 201 228 240 237 233 216 216 223 218 209 211 225 242 260 269 267 272 279 285 288 288 293 292 288 288 288 289 290 289 287 282 279 275 273 272 273
138 134 120 155 134 124 159 143 143 142 137 148 144 122 120 126 135 139 147 145 142 148 153 148 144 138 124 136 164 183 175 158 154 152 154 167 171 162 159 157 159 159 162 164 163 168 174 178 177 178 184 181 179 180 180 180 178 180 177 179 187 193 217 249 260 273 244 223 225 224 215 219 229 234 251 265 263 268 274 277 285 289 291 289 283 279 280 284 287 292 294 291 287 281 278 276 275
136 121 114 156 131 151 163 137 155 150 146 161 153 109 131 139 142 148 158 147 146 154 152 151 143 133 126 139 164 183 171 158 155 149 150 160 161 163 167 159 160 162 162 164 165 169 176 177 174 176 184 187 183 179 182 182 177 182 184 184 187 190 203 226 240 259 246 227 224 233 233 226 221 221 237 248 248 255 264 271 280 285 288 287 284 280 278 281 284 290 294 293 292 287 282 280 277
137 124 135 148 122 169 159 149 175 156 161 173 144 108 139 147 148 151 164 149 151 158 152 154 144 137 136 143 169 176 164 168 167 153 147 155 163 170 177 162 158 165 166 165 166 168 168 169 170 176 182 187 185 180 185 186 179 185 187 178 182 189 196 210 224 240 227 211 212 231 240 223 218 225 233 232 239 253 257 266 277 281 283 283 283 282 279 280 284 288 290 290 292 291 288 285 282
142 134 144 128 124 220 163 161 175 141 141 158 140 142 144 150 149 151 171 160 156 160 156 158 148 143 141 149 177 164 160 182 178 161 150 154 164 162 159 149 144 155 164 164 166 166 152 151 157 171 180 185 184 183 187 189 187 195 197 186 185 194 201 213 224 238 211 184 182 196 216 221 222 232 242 238 254 263 256 264 283 287 285 284 285 284 283 285 287 286 285 286 288 292 292 290 286
142 138 141 145 164 210 152 166 161 137 142 164 168 143 139 149 147 152 171 163 159 162 163 164 150 146 145 157 177 155 160 180 177 162 143 140 144 141 138 141 137 141 155 161 164 166 159 155 150 157 173 182 185 187 189 193 197 203 209 204 199 203 212 219 225 237 248 238 212 196 217 232 233 251 260 259 273 275 264 274 294 299 295 291 289 288 287 288 288 284 282 283 284 287 289 290 289
152 169 163 154 170 176 155 174 176 159 161 161 140 118 136 148 151 159 167 159 165 170 170 166 145 143 149 161 168 153 159 169 179 163 137 133 136 138 139 143 145 144 150 158 162 166 167 168 165 162 170 176 180 185 187 192 200 206 210 208 212 221 224 225 230 240 251 262 269 275 275 269 277 281 265 272 291 290 284 294 307 310 307 300 294 294 294 294 294 290 286 286 287 286 285 287 290
163 175 178 165 172 182 170 186 199 173 165 151 138 136 145 153 162 166 165 162 168 172 172 160 142 146 153 161 162 156 159 166 180 164 140 140 143 148 151 149 153 157 158 162 165 170 168 168 174 172 175 181 184 185 188 191 193 199 200 201 214 222 228 236 244 254 262 275 285 291 297 297 296 285 280 323 327 312 306 311 317 318 314 305 300 301 303 304 303 299 296 293 291 291 287 286 287
171 174 183 176 173 184 175 182 187 161 167 165 147 150 151 155 166 168 167 167 167 168 169 160 150 153 157 166 167 159 162 166 169 157 145 149 153 156 161 160 160 161 167 169 168 173 171 169 175 173 175 183 186 187 190 191 190 196 199 204 215 222 238 253 258 265 269 295 304 290 296 297 281 266 5 7 354 339 332 322 321 325 323 314 308 308 308 307 305 302 300 293 290 292 291 288 287
188 180 186 184 178 182 170 169 171 157 157 148 145 162 159 157 167 170 169 170 169 167 166 164 160 159 165 175 169 162 162 162 158 151 149 158 164 164 163 166 169 168 172 172 169 174 173 173 176 174 174 178 181 184 188 190 192 198 202 208 214 215 234 247 252 280 330 324 307 292 290 279 257 37 36 31 21 2 352 343 336 333 329 322 315 313 312 311 309 309 303 293 287 287 289 290 292
235 199 188 190 169 156 159 166 177 170 150 150 165 170 158 160 168 171 173 177 174 166 164 165 162 162 174 177 164 164 166 162 162 154 158 167 169 168 166 169 175 174 172 172 171 173 173 176 178 175 178 180 181 187 192 196 199 199 194 182 168 169 176 147 108 77 359 323 20 74 80 107 108 74 51 31 18 5 360 355 346 334 327 323 320 319 319 318 316 318 312 299 293 290 291 297 301
258 239 195 192 159 146 158 180 183 176 154 165 170 156 149 162 168 171 174 178 170 164 165 164 163 168 177 177 163 167 170 163 169 165 166 175 174 172 171 172 177 176 170 170 173 175 176 178 180 180 183 184 186 192 195 193 190 180 162 153 155 159 141 138 132 86 73 82 79 76 81 94 89 55 34 20 11 360 349 341 336 331 331 333 331 328 322 317 316 320 321 312 306 302 301 304 306
254 253 236 206 173 165 167 174 176 164 158 172 158 130 165 171 165 174 176 178 170 164 165 162 166 171 173 173 165 170 173 166 173 172 170 178 175 176 177 175 179 178 171 173 177 179 180 183 186 185 184 184 185 186 181 170 164 162 154 152 166 165 138 129 149 103 79 95 55 47 61 71 57 40 28 8 340 337 340 338 337 336 340 343 340 333 323 317 319 324 328 325 317 308 305 304 303
267 251 246 235 202 175 157 159 166 155 177 181 147 121 220 209 176 178 177 181 178 168 168 165 166 169 170 171 169 174 176 168 173 172 170 178 176 177 181 178 178 178 176 178 180 183 184 185 187 185 181 180 175 167 164 160 160 164 162 159 159 159 140 114 138 156 309 291 322 14 42 17 9 11 347 337 338 345 347 339 336 338 343 347 344 339 333 331 337 340 339 331 319 306 303 301 301
272 235 241 258 276 237 151 157 165 167 198 182 156 147 207 232 200 187 176 177 184 176 170 167 166 170 173 169 169 178 177 169 173 172 170 179 178 177 181 181 179 178 178 178 181 184 183 182 183 180 177 176 171 165 165 167 167 166 164 161 153 149 144 127 137 234 269 247 256 271 316 329 337 329 325 335 342 347 342 331 331 336 345 350 346 344 342 343 344 341 339 332 322 317 312 305 303
256 229 217 232 268 258 170 167 168 162 188 189 170 147 124 208 216 192 171 162 186 197 179 172 170 173 176 171 171 178 176 168 170 174 174 181 180 176 179 183 180 177 176 177 180 181 180 180 179 177 176 174 172 171 171 172 171 167 165 166 162 159 160 151 146 179 178 176 184 221 283 291 300 316 320 324 332 337 329 325 331 340 350 349 341 340 342 341 340 339 341 339 334 331 324 315 310
235 243 223 210 238 251 179 166 173 159 173 214 189 146 119 205 213 184 171 170 197 215 201 183 173 175 177 173 174 175 173 170 169 172 176 179 178 175 178 181 178 174 174 176 179 178 177 176 175 175 175 174 174 174 172 171 168 167 169 171 169 170 174 178 184 189 201 222 218 212 227 215 269 296 306 319 335 344 329 327 339 344 341 338 331 335 344 346 348 351 349 345 341 335 329 325 321
220 247 261 252 226 239 180 162 173 149 161 227 206 168 150 204 190 173 174 187 204 209 205 193 178 177 178 175 176 173 170 171 170 172 174 175 176 176 177 178 175 172 174 176 176 175 173 173 173 174 175 176 177 174 169 168 170 173 176 176 174 177 182 187 200 220 225 224 205 203 215 226 263 289 310 322 335 343 337 330 328 325 325 329 331 334 345 350 352 353 344 339 338 334 331 332 331
216 234 260 272 238 226 140 152 121 88 174 254 224 181 171 195 196 179 181 196 201 194 192 197 184 180 181 179 176 171 168 170 171 174 173 172 174 173 173 174 170 167 169 171 171 171 171 172 174 174 176 179 177 173 171 172 176 177 175 178 178 178 182 185 196 207 202 207 208 203 211 240 267 318 322 321 333 345 345 330 319 321 325 332 340 343 341 339 338 334 326 326 332 335 334 334 335
225 219 224 253 274 8 24 14 70 96 239 253 261 214 187 203 217 198 201 203 194 184 187 192 188 184 183 181 174 168 167 169 171 173 171 167 167 167 170 170 164 162 165 167 168 171 172 173 175 174 177 179 176 176 177 178 179 175 173 181 183 181 186 192 201 204 206 214 209 198 209 258 287 309 311 332 11 329 316 323 326 328 329 332 336 338 333 320 317 324 330 337 342 344 341 341 343
231 230 206 150 278 259 14 346 5 192 239 235 283 300 237 223 209 197 205 208 192 185 189 188 186 184 180 180 177 168 164 168 171 172 169 165 161 164 167 166 162 162 165 167 169 172 173 175 176 175 177 179 179 179 180 182 183 175 175 183 186 188 194 200 202 202 210 210 204 211 232 248 273 288 298 322 327 309 311 327 337 332 333 336 329 328 331 323 316 330 343 346 345 348 346 343 342
218 216 207 150 133 163 176 251 233 248 265 242 252 277 270 270 233 194 199 204 193 186 185 184 188 186 178 178 176 166 164 169 172 171 169 167 162 164 166 164 164 166 167 168 171 173 174 176 177 177 178 179 181 182 182 184 185 181 182 185 185 190 196 200 202 201 207 213 224 244 242 245 279 291 285 305 318 323 332 338 335 331 334 339 329 323 330 334 333 332 332 330 331 339 339 334 338
218 202 197 176 147 153 171 180 188 228 259 252 242 238 225 244 259 201 194 195 181 180 187 183 187 187 177 176 173 166 166 168 172 171 168 166 163 163 165 164 165 168 170 170 173 175 176 178 179 178 178 179 182 184 184 184 184 185 187 186 189 196 197 197 202 210 222 234 243 240 236 259 293 295 285 308 334 350 358 336 329 333 335 333 327 321 322 328 331 323 319 322 328 332 328 330 343
221 182 179 201 183 153 165 198 188 197 243 254 239 228 198 216 250 123 157 166 162 177 187 176 178 177 166 171 175 172 170 168 171 170 165 164 162 163 165 165 166 170 172 174 175 178 179 180 181 180 180 181 183 184 184 184 184 185 187 190 194 198 198 203 211 220 227 226 223 231 248 268 288 290 284 308 345 351 337 322 323 329 331 328 322 319 319 318 321 324 326 329 333 335 329 330 339
201 145 175 210 220 153 146 212 202 177 232 246 231 251 280 213 299 88 130 147 162 170 167 164 169 165 160 170 179 179 173 167 170 169 164 164 163 165 167 167 168 172 175 178 179 181 182 182 181 181 181 183 184 184 184 184 185 187 190 194 195 197 202 210 215 212 211 216 229 249 263 267 272 273 279 305 321 315 313 318 322 321 324 324 317 316 318 312 313 322 326 325 327 328 322 320 324
183 166 180 188 248 237 140 149 222 179 218 228 214 230 203 145 260 173 136 147 161 150 141 157 164 163 166 173 178 179 171 166 171 169 165 165 165 166 169 170 172 175 178 181 183 183 184 184 182 181 182 184 185 185 184 184 188 191 193 195 194 198 204 207 210 214 221 229 239 251 255 259 263 260 271 293 299 293 302 311 312 311 317 320 315 315 315 309 309 312 312 313 314 310 308 309 310
204 172 170 159 209 239 172 132 206 186 209 260 252 241 215 181 209 175 146 148 145 130 129 146 155 159 164 168 171 170 159 161 168 165 163 165 165 167 169 171 174 177 179 182 183 184 185 185 184 183 185 187 186 185 184 184 190 194 195 196 197 201 206 208 212 218 224 231 239 245 246 248 252 256 263 268 265 274 286 290 294 302 309 310 311 313 309 303 300 296 298 303 303 297 296 299 302
231 175 172 167 183 200 185 187 178 163 171 207 282 284 280 264 216 165 155 148 135 127 127 143 153 155 154 160 166 160 151 160 165 163 165 166 166 170 171 172 175 177 179 180 181 183 185 186 185 184 186 187 186 185 183 184 191 195 194 195 199 204 208 211 213 218 227 237 243 245 243 245 250 255 255 258 265 271 271 272 281 290 295 296 298 300 302 301 294 287 290 296 300 300 296 296 301
221 202 188 186 197 185 183 208 191 157 149 150 224 304 292 286 266 140 141 138 133 131 129 139 150 151 156 161 163 162 159 163 164 163 167 169 170 171 172 174 175 175 176 178 179 182 184 185 186 185 185 187 187 185 184 185 190 194 195 197 200 203 205 209 215 223 232 239 243 248 251 252 252 252 251 257 265 264 261 269 273 276 281 286 288 291 296 298 293 289 287 287 294 299 295 292 296
200 209 194 185 196 172 159 235 224 152 136 156 152 174 279 294 13 97 111 114 114 118 124 130 132 138 151 156 157 164 167 166 169 168 168 171 170 169 170 172 172 173 176 178 179 180 181 183 186 186 185 187 188 186 184 186 189 192 195 198 200 204 207 213 219 224 229 235 243 250 255 256 255 255 254 258 262 258 259 271 273 272 274 273 279 293 296 292 290 291 286 282 291 295 293 294 294